IRNSS-1C

Last updated on Sun Apr 12 2026 00:02:53 GMT+0000 (Coordinated Universal Time)

1 40269U 14061A 26101.47364411 -.00000156 00000+0 00000+0 0 9994 2 40269 6.3476 90.2035 0021083 356.6933 6.3573 1.00272044 42029
UTC large
Height (km)
Speed (km/s)
/
Latitude / Longitude
Inclination (degrees)
Orbital Period (minutes)
Azimuth
Elevation
Range (km)
Doppler Factor

Next 0 passes for location: London (51.5072 / 0.1276)

Sorry there are no passes over London.